sat.trackr.live / text

‹ back to catalog

STARLINK-30789

NORAD 58166 · 2023-166S

PAYLOAD ACTIVE UNKNOWN

§ Identity

Operator
Country
US
Launch date
2023-10-29
Launch site
AFWTR
Launch vehicle
Mass (kg)
RCS (m²)

Purposes: comms

External: N2YO · Heavens-Above · Gunter

§ Orbital elements

Epoch: 2026-09-20T14:55:32.893536Z

Period
93.85 min
Inclination
53.1645°
Eccentricity
0.0000339
Mean motion
15.34374165 rev/d
Perigee alt
462.5 km
Apogee alt
463.0 km
Semi-major
6,840.9 km
B*
4.8578e-5
RAAN
32.8091°
Arg perigee
139.3391°
Mean anomaly
220.7637°
Rev number
16,304

§ Raw data

STARLINK-307891 58166U 23166S   26263.62190849  .00001265  00000+0  48578-4 0  99912 58166  53.1645  32.8091 0000339 139.3391 220.7637 15.34374165163049

JSON: /api/v1/satellites/58166 · /tle

For live sub-satellite position, see the globe view (requires WebGL).

§ Visibility from observer

Set your observer location to see the next 7 days of passes ≥ 10°. The values pass through the URL so the page stays shareable.

No JS? Fill the form by hand. The geolocation button needs JavaScript.